#timestamp,LO_Frequency,Hit,StdDev 
1506632415.9,286047014.3,N
1506632435.7,286047013.8,N
1506632455.6,286047010.4,N
1506632475.4,286047006.7,N
1506632495.2,286047005.3,N
1506632515.1,286047003.2,N
1506632516.0,286047003.2,N
1506632535.8,286047001.6,N
1506632555.7,286047002.7,N
1506632575.5,286047002.4,N
1506632595.3,286047000.3,N
1506632615.2,286047000.6,N
1506632635.0,286047006.0,N
1506632635.9,286047006.0,N
1506632655.8,286047002.9,N
1506632675.6,286047001.5,N
1506632695.4,286046998.7,N
1506632715.3,286046996.6,N
1506632735.1,286046998.9,N
1506632755.8,286046997.9,N
1506632775.7,286046995.1,N
1506632795.5,286046995.5,N
1506632815.4,286046996.1,N
1506632835.2,286046996.4,N
1506632855.0,286046996.3,N
1506632855.9,286046996.3,N
1506632875.8,286046994.6,N
1506632895.6,286046994.2,N
1506632915.4,286046992.3,N
1506632935.3,286046993.2,N
1506632955.1,286046991.9,N
1506632975.9,286046992.7,N
1506632995.7,286046990.1,N
1506633015.5,286046990.8,N
1506633035.4,286046990.4,N
1506633055.2,286046990.4,N
1506633075.0,286046991.3,N
1506633076.0,286046991.3,N
1506633095.8,286046991.3,N
1506633115.6,286046993.1,N
1506633135.5,286046991.4,N
1506633155.3,286046990.3,N
1506633175.1,286046991.5,N
1506633195.9,286046991.2,N
1506633215.7,286046988.8,Y
1506633235.6,286046995.7,P
1506633255.4,286046995.2,P
1506633275.2,286046993.7,P
1506633295.1,286046993.7,Y
1506633296.0,286046993.7,P
1506633315.8,286047000.5,N
1506633335.7,286046998.7,N
1506633355.5,286046998.1,N
1506633375.3,286047000.1,N
1506633395.2,286047002.8,N
1506633415.0,286047001.0,N
1506633415.9,286047001.0,N
1506633435.8,286046999.9,N
1506633455.6,286047000.6,N
1506633475.4,286047000.6,N
1506633495.3,286047000.0,N
1506633515.1,286046998.7,N
1506633535.8,286046998.1,N
1506633555.7,286046999.0,N
1506633575.5,286047000.4,N
1506633595.4,286047002.7,N
1506633615.2,286047000.2,N
1506633635.0,286047000.2,N
1506633635.9,286047000.2,N
1506633655.8,286046999.9,N
1506633675.6,286047000.1,N
1506633695.5,286047000.9,N
1506633715.3,286047000.4,N
1506633735.1,286047000.1,N
1506633755.9,286047002.5,N
1506633775.7,286047002.3,N
1506633795.5,286046999.7,N
1506633815.4,286047002.8,N
1506633835.2,286047000.5,N
1506633855.1,286047000.3,N
1506633856.0,286047000.3,N
1506633875.8,286047001.0,N
1506633895.6,286047000.0,N
1506633915.5,286047000.0,N
1506633935.3,286047002.7,N
1506633955.2,286047002.1,N
1506633975.9,286046999.7,N
1506633995.7,286047000.7,N
1506634015.6,286046998.2,N
1506634035.4,286046999.0,N
1506634055.2,286046998.3,N
1506634075.1,286047000.9,N
1506634076.0,286047000.9,N
1506634095.8,286047000.2,N
1506634115.7,286047001.0,N
1506634135.5,286047001.2,N
1506634155.3,286046998.2,N
1506634175.2,286047001.0,N
1506634195.0,286047001.2,N
1506634195.9,286047001.2,N
1506634215.8,286046998.5,N
1506634235.6,286047002.8,N
1506634255.4,286047002.4,N
1506634275.3,286047000.7,N
1506634295.1,286046999.8,N
1506634315.8,286047000.6,N
1506634335.7,286047000.4,N
1506634355.5,286046999.7,N
1506634375.4,286047000.0,N
1506634395.2,286047001.9,N
1506634415.0,286047001.5,N
1506634415.9,286047001.5,N
1506634435.8,286047001.5,N
1506634455.6,286047004.3,Y
1506634475.4,286047000.1,P
1506634495.3,286047002.8,P
1506634515.1,286047000.2,N
1506634535.9,286047001.7,N
1506634555.7,286047002.1,N
1506634575.5,286047004.3,Y
1506634595.4,286047002.3,P
1506634615.2,286047000.2,N
1506634635.1,286047002.6,N
1506634636.0,286047002.6,N
1506634655.8,286047000.6,N
1506634675.6,286046999.9,N
1506634695.5,286047000.0,N
1506634715.3,286047002.5,N
1506634735.2,286047002.7,N
1506634755.9,286047002.8,N
1506634775.7,286047002.8,N
1506634795.6,286047001.4,N
1506634815.4,286047004.3,Y
1506634835.2,286047002.2,P
1506634855.1,286047002.7,P
1506634856.0,286047002.7,P
1506634875.8,286047002.6,Y
1506634895.7,286046999.3,P
1506634915.5,286046996.9,N
1506634935.4,286046996.5,N
1506634955.2,286046999.5,N
1506634975.0,286046996.9,N
1506634975.9,286046996.9,N
1506634995.8,286047000.0,N
1506635015.6,286047000.0,N
1506635035.4,286047000.8,N
1506635055.3,286047000.7,N
1506635075.1,286047001.2,N
1506635095.9,286047000.2,N
1506635115.7,286047000.0,N
1506635135.5,286047000.7,N
1506635155.4,286046999.9,N
1506635175.2,286047000.5,N
1506635195.1,286047000.3,N
1506635196.0,286047000.3,N
1506635215.8,286047011.9,Y
1506635235.6,286047000.1,P
1506635255.5,286047002.5,P
1506635275.3,286047002.2,N
1506635295.2,286047000.2,N
1506635315.9,286046999.9,N
1506635335.7,286047000.5,N
1506635355.6,286046998.1,N
1506635375.4,286047001.2,N
1506635395.2,286047001.0,N
1506635415.1,286047000.9,N
1506635416.0,286047000.9,N
1506635435.8,286047000.3,N
1506635455.7,286046999.7,N
1506635475.5,286046999.9,N
1506635495.3,286047002.0,N
1506635515.2,286047002.3,N
1506635535.0,286046999.8,N
1506635535.9,286046999.8,N
1506635555.8,286047002.7,N
1506635575.6,286047002.7,N
1506635595.4,286047002.5,N
1506635615.3,286047000.2,N
1506635635.1,286047000.1,N
1506635655.8,286047001.4,N
1506635675.7,286047001.3,N
1506635695.5,286047002.1,N
1506635715.4,286047004.4,Y
1506635735.2,286047001.6,P
1506635755.0,286047002.5,P
1506635755.9,286047002.5,P
1506635775.8,286047002.6,Y
1506635795.6,286047001.2,P
1506635815.5,286046998.7,P
1506635835.3,286047000.3,N
1506635855.1,286047002.8,N
1506635875.9,286047001.6,N
1506635895.7,286047002.0,N
1506635915.5,286046999.7,N
1506635935.4,286047002.7,N
1506635955.2,286047000.0,N
1506635975.1,286047002.4,N
1506635976.0,286047002.4,N
1506635995.8,286046999.7,N
